TimeHST,TemperatureF,Dew PointF,Humidity,Sea Level PressureIn,VisibilityMPH,Wind Direction,Wind SpeedMPH,Gust SpeedMPH,PrecipitationIn,Events,Conditions,WindDirDegrees,DateUTC
12:53 AM,75.0,62.1,64,30.04,10.0,NE,11.5,-,N/A,,Scattered Clouds,40,2013-06-07 10:53:00
1:53 AM,75.0,64.0,69,30.02,10.0,ENE,11.5,19.6,N/A,,Mostly Cloudy,60,2013-06-07 11:53:00
2:53 AM,75.0,62.1,64,30.01,10.0,NE,15.0,-,0.00,,Mostly Cloudy,50,2013-06-07 12:53:00
3:53 AM,73.9,62.1,66,30.01,10.0,ENE,9.2,-,N/A,,Scattered Clouds,60,2013-06-07 13:53:00
4:53 AM,73.9,63.0,68,30.01,10.0,ENE,9.2,-,N/A,,Partly Cloudy,60,2013-06-07 14:53:00
5:53 AM,73.9,63.0,68,30.02,10.0,NE,11.5,-,N/A,,Scattered Clouds,50,2013-06-07 15:53:00
6:53 AM,75.0,63.0,66,30.03,10.0,ENE,12.7,-,N/A,,Scattered Clouds,70,2013-06-07 16:53:00
7:53 AM,77.0,63.0,62,30.04,10.0,ENE,12.7,20.7,0.00,,Scattered Clouds,60,2013-06-07 17:53:00
8:53 AM,79.0,62.1,56,30.04,10.0,ENE,15.0,21.9,N/A,,Scattered Clouds,70,2013-06-07 18:53:00
9:53 AM,80.1,62.1,54,30.04,10.0,ENE,15.0,24.2,N/A,,Mostly Cloudy,60,2013-06-07 19:53:00
10:53 AM,80.1,62.1,54,30.04,10.0,East,18.4,25.3,N/A,,Mostly Cloudy,80,2013-06-07 20:53:00
11:53 AM,80.1,63.0,56,30.04,10.0,ENE,15.0,23.0,0.00,,Mostly Cloudy,70,2013-06-07 21:53:00
12:53 PM,79.0,63.0,58,30.01,10.0,ENE,15.0,-,N/A,,Mostly Cloudy,70,2013-06-07 22:53:00
1:53 PM,82.0,63.0,52,29.99,10.0,ENE,16.1,23.0,N/A,,Mostly Cloudy,70,2013-06-07 23:53:00
2:53 PM,82.0,63.0,52,29.98,10.0,NE,20.7,27.6,N/A,,Scattered Clouds,50,2013-06-08 00:53:00
3:53 PM,81.0,63.0,54,29.98,10.0,NE,15.0,24.2,N/A,,Mostly Cloudy,50,2013-06-08 01:53:00
4:53 PM,80.1,61.0,52,29.98,10.0,ENE,16.1,24.2,N/A,,Mostly Cloudy,60,2013-06-08 02:53:00
5:53 PM,78.1,62.1,58,29.98,10.0,ENE,12.7,-,N/A,,Mostly Cloudy,60,2013-06-08 03:53:00
6:53 PM,75.9,64.9,69,30.00,10.0,ENE,15.0,26.5,0.00,Rain,Light Rain,70,2013-06-08 04:53:00
7:53 PM,75.9,64.0,67,30.03,10.0,ENE,10.4,-,0.00,,Overcast,70,2013-06-08 05:53:00
8:53 PM,75.0,64.0,69,30.05,10.0,East,9.2,-,0.00,Rain,Light Rain,90,2013-06-08 06:53:00
9:53 PM,75.0,64.0,69,30.06,10.0,ENE,8.1,-,0.00,,Mostly Cloudy,60,2013-06-08 07:53:00
10:53 PM,75.0,64.9,71,30.06,10.0,NE,11.5,-,N/A,,Scattered Clouds,50,2013-06-08 08:53:00
11:53 PM,73.9,64.0,71,30.06,10.0,ENE,11.5,-,0.00,,Mostly Cloudy,70,2013-06-08 09:53:00